VTK601 UUEE-URMM

Flight info

Callsign VTK601
Flight time 3h 0m
Altitude 41000
Route TOGMO3J TOGMO M56 ABAGI B105 NIMTA/K0922F400 B105 NATIT/K0919F410 DCT MOLED N50 LIDUS/K0915F400 G242 ZG/K0911F410 DCT ITAKA/K0915F430 DCT OBBUD DCT AMKOL DCT GOTIK DCT MEMZA A962 OKARU OKARU5B
Aircraft A359/H-SDE2E3GHIJ3J4J5LM1ORWXY/LB1D1

Departure

Time 2026-04-23 10:28
Airport Sheremetyevo International Airport (UUEE)

Arrival

Time 2026-04-23 13:28
Airport Mineralnye Vody Airport (URMM)
Time Latitude Longitude Altitude Speed Heading
2026-04-23 10:12 55.97929 37.42152 645 ft 0 kts 255°
2026-04-23 10:25 55.97929 37.42150 645 ft 2 kts 255°
2026-04-23 10:25 55.97866 37.42073 645 ft 18 kts 179°
2026-04-23 10:25 55.97734 37.42117 645 ft 21 kts 165°
2026-04-23 10:26 55.97700 37.42305 645 ft 18 kts 75°
2026-04-23 10:26 55.97736 37.42533 648 ft 20 kts 74°
2026-04-23 10:26 55.97775 37.42789 647 ft 22 kts 74°
2026-04-23 10:26 55.97818 37.43067 645 ft 24 kts 75°
2026-04-23 10:27 55.97865 37.43365 648 ft 26 kts 74°
2026-04-23 10:27 55.97913 37.43681 645 ft 27 kts 75°
2026-04-23 10:27 55.97941 37.43972 645 ft 22 kts 110°
2026-04-23 10:27 55.97811 37.44050 646 ft 21 kts 206°
2026-04-23 10:28 55.97747 37.43786 650 ft 41 kts 255°
2026-04-23 10:28 55.97608 37.42857 645 ft 111 kts 255°
2026-04-23 10:28 55.97353 37.41171 672 ft 165 kts 256°
2026-04-23 10:28 55.97018 37.39284 1494 ft 157 kts 256°
2026-04-23 10:29 55.96662 37.37349 2013 ft 181 kts 251°
2026-04-23 10:29 55.95925 37.35259 2325 ft 217 kts 240°
2026-04-23 10:29 55.94982 37.32964 2849 ft 239 kts 239°
2026-04-23 10:29 55.93987 37.30515 3702 ft 247 kts 239°
2026-04-23 10:30 55.92993 37.28027 4657 ft 247 kts 239°
2026-04-23 10:30 55.92007 37.25514 5619 ft 247 kts 238°
2026-04-23 10:30 55.91010 37.22978 6371 ft 252 kts 238°
2026-04-23 10:30 55.90024 37.20403 6860 ft 252 kts 238°
2026-04-23 10:31 55.89071 37.17747 6995 ft 254 kts 244°
2026-04-23 10:31 55.88292 37.14836 6999 ft 273 kts 249°
2026-04-23 10:31 55.87523 37.11643 6751 ft 284 kts 249°
2026-04-23 10:31 55.86758 37.08386 6518 ft 285 kts 252°
2026-04-23 10:32 55.86498 37.04972 6378 ft 276 kts 282°
2026-04-23 10:32 55.86944 37.01673 6682 ft 276 kts 291°
2026-04-23 10:32 55.87515 36.98379 7200 ft 278 kts 291°
2026-04-23 10:32 55.88064 36.95088 7360 ft 276 kts 289°
2026-04-23 10:33 55.88604 36.91803 7377 ft 278 kts 288°
2026-04-23 10:33 55.89135 36.88515 7368 ft 275 kts 290°
2026-04-23 10:33 55.89669 36.85252 7380 ft 274 kts 290°
2026-04-23 10:33 55.90202 36.81985 7377 ft 275 kts 289°
2026-04-23 10:34 55.90734 36.78706 7379 ft 276 kts 289°
2026-04-23 10:34 55.91018 36.75295 7391 ft 283 kts 271°
2026-04-23 10:34 55.90693 36.71816 7664 ft 287 kts 260°
2026-04-23 10:34 55.90207 36.68346 8434 ft 291 kts 259°
2026-04-23 10:35 55.89710 36.64863 9474 ft 291 kts 259°
2026-04-23 10:35 55.89209 36.61360 10410 ft 292 kts 258°
2026-04-23 10:35 55.88709 36.57860 11426 ft 291 kts 258°
2026-04-23 10:35 55.88212 36.54362 12116 ft 292 kts 257°
2026-04-23 10:36 55.87537 36.50952 12383 ft 294 kts 243°
2026-04-23 10:36 55.86235 36.48142 12408 ft 298 kts 219°
2026-04-23 10:36 55.84370 36.46547 12409 ft 301 kts 194°
2026-04-23 10:36 55.82287 36.46461 12409 ft 302 kts 170°
2026-04-23 10:37 55.80216 36.47123 12405 ft 303 kts 170°
2026-04-23 10:37 55.78138 36.47769 12409 ft 303 kts 170°
2026-04-23 10:37 55.76089 36.48706 12415 ft 306 kts 156°
2026-04-23 10:37 55.74249 36.50477 12745 ft 306 kts 148°
2026-04-23 10:38 55.72423 36.52483 13426 ft 310 kts 148°
2026-04-23 10:38 55.70596 36.54495 14056 ft 308 kts 148°
2026-04-23 10:38 55.68774 36.56493 14354 ft 308 kts 148°
2026-04-23 10:38 55.66944 36.58498 14397 ft 309 kts 149°
2026-04-23 10:39 55.65107 36.60483 14400 ft 309 kts 149°
2026-04-23 10:39 55.63278 36.62464 14404 ft 308 kts 149°
2026-04-23 10:39 55.61525 36.64625 14381 ft 308 kts 139°
2026-04-23 10:39 55.60151 36.67556 14388 ft 315 kts 123°
2026-04-23 10:40 55.58988 36.70844 14374 ft 316 kts 121°
2026-04-23 10:40 55.57857 36.74173 14376 ft 315 kts 121°
2026-04-23 10:40 55.56725 36.77484 14376 ft 315 kts 121°
2026-04-23 10:40 55.55582 36.80801 14364 ft 316 kts 122°
2026-04-23 10:41 55.54439 36.84109 14367 ft 316 kts 122°
2026-04-23 10:41 55.53292 36.87412 14367 ft 316 kts 122°
2026-04-23 10:41 55.52144 36.90712 14368 ft 315 kts 122°
2026-04-23 10:41 55.50995 36.94009 14369 ft 316 kts 122°
2026-04-23 10:42 55.49840 36.97311 14352 ft 316 kts 122°
2026-04-23 10:42 55.48689 37.00601 14353 ft 314 kts 122°
2026-04-23 10:42 55.47545 37.03872 14353 ft 313 kts 121°
2026-04-23 10:42 55.46401 37.07138 14355 ft 313 kts 122°
2026-04-23 10:43 55.45265 37.10380 14358 ft 311 kts 122°
2026-04-23 10:43 55.44017 37.13504 14352 ft 313 kts 131°
2026-04-23 10:43 55.42330 37.15996 14339 ft 323 kts 148°
2026-04-23 10:43 55.40375 37.18024 14340 ft 329 kts 151°
2026-04-23 10:44 55.38374 37.19983 14337 ft 330 kts 151°
2026-04-23 10:44 55.36369 37.21947 14342 ft 330 kts 151°
2026-04-23 10:44 55.34363 37.23917 14339 ft 330 kts 150°
2026-04-23 10:44 55.32362 37.25893 14331 ft 330 kts 150°
2026-04-23 10:45 55.30361 37.27874 14330 ft 330 kts 150°
2026-04-23 10:45 55.28359 37.29855 14333 ft 330 kts 150°
2026-04-23 10:45 55.26361 37.31832 14329 ft 329 kts 152°
2026-04-23 10:45 55.24383 37.33786 14329 ft 325 kts 152°
2026-04-23 10:46 55.22479 37.35904 14327 ft 325 kts 143°
2026-04-23 10:46 55.20969 37.38819 14334 ft 325 kts 124°
2026-04-23 10:46 55.19843 37.42280 14327 ft 327 kts 119°
2026-04-23 10:46 55.18785 37.45802 14321 ft 327 kts 119°
2026-04-23 10:47 55.17732 37.49341 14321 ft 330 kts 119°
2026-04-23 10:47 55.16663 37.52900 14327 ft 330 kts 119°
2026-04-23 10:47 55.15587 37.56437 14320 ft 328 kts 120°
2026-04-23 10:47 55.14505 37.59978 14323 ft 331 kts 120°
2026-04-23 10:48 55.13453 37.63557 14325 ft 332 kts 115°
2026-04-23 10:48 55.12798 37.67403 14380 ft 332 kts 102°
2026-04-23 10:48 55.12396 37.71401 14782 ft 337 kts 101°
2026-04-23 10:48 55.12000 37.75470 15552 ft 342 kts 102°
2026-04-23 10:49 55.11599 37.79548 16119 ft 342 kts 102°
2026-04-23 10:49 55.11195 37.83655 16309 ft 344 kts 102°
2026-04-23 10:49 55.10760 37.87761 16326 ft 343 kts 106°
2026-04-23 10:49 55.09901 37.91595 16319 ft 339 kts 124°
2026-04-23 10:50 55.08431 37.94789 16592 ft 339 kts 136°
2026-04-23 10:50 55.06785 37.97769 17341 ft 341 kts 137°
2026-04-23 10:50 55.05123 38.00746 17985 ft 342 kts 137°
2026-04-23 10:50 55.03463 38.03721 18264 ft 343 kts 138°
2026-04-23 10:51 55.01797 38.06707 18323 ft 344 kts 138°
2026-04-23 10:51 55.00127 38.09699 18306 ft 345 kts 138°
2026-04-23 10:51 54.98452 38.12699 18303 ft 345 kts 138°
2026-04-23 10:51 54.96778 38.15696 18318 ft 346 kts 138°
2026-04-23 10:52 54.95101 38.18698 18302 ft 345 kts 139°
2026-04-23 10:52 54.93429 38.21688 18308 ft 345 kts 139°
2026-04-23 10:52 54.91756 38.24681 18298 ft 347 kts 139°
2026-04-23 10:52 54.90078 38.27676 18302 ft 345 kts 139°
2026-04-23 10:53 54.88405 38.30652 18300 ft 345 kts 139°
2026-04-23 10:53 54.86728 38.33645 18304 ft 345 kts 139°
2026-04-23 10:53 54.85130 38.36774 18301 ft 350 kts 130°
2026-04-23 10:53 54.83842 38.40372 18463 ft 353 kts 124°
2026-04-23 10:54 54.82630 38.44116 19095 ft 358 kts 123°
2026-04-23 10:54 54.81422 38.47896 19822 ft 357 kts 124°
2026-04-23 10:54 54.80211 38.51651 20222 ft 358 kts 124°
2026-04-23 10:54 54.78989 38.55420 20304 ft 359 kts 125°
2026-04-23 10:55 54.77752 38.59189 20287 ft 360 kts 126°
2026-04-23 10:55 54.76300 38.62695 20287 ft 356 kts 137°
2026-04-23 10:55 54.74483 38.65534 20360 ft 352 kts 150°
2026-04-23 10:55 54.72401 38.67848 20584 ft 363 kts 154°
2026-04-23 10:56 54.70186 38.70134 20863 ft 379 kts 154°
2026-04-23 10:56 54.67885 38.72504 21288 ft 390 kts 154°
2026-04-23 10:56 54.65544 38.74931 21951 ft 394 kts 154°
2026-04-23 10:56 54.63181 38.77389 22681 ft 398 kts 154°
2026-04-23 10:57 54.60802 38.79861 23307 ft 401 kts 154°
2026-04-23 10:57 54.58392 38.82355 23842 ft 406 kts 154°
2026-04-23 10:57 54.55963 38.84874 24382 ft 410 kts 154°
2026-04-23 10:57 54.53505 38.87419 24879 ft 414 kts 154°
2026-04-23 10:58 54.51025 38.89981 25436 ft 418 kts 154°
2026-04-23 10:58 54.48520 38.92563 25986 ft 422 kts 154°
2026-04-23 10:58 54.45992 38.95164 26557 ft 426 kts 154°
2026-04-23 10:58 54.43452 38.97836 27105 ft 431 kts 152°
2026-04-23 10:59 54.41048 39.00998 27659 ft 441 kts 143°
2026-04-23 10:59 54.38935 39.04888 28199 ft 451 kts 133°
2026-04-23 10:59 54.37218 39.09463 28708 ft 462 kts 122°
2026-04-23 10:59 54.35844 39.14492 29240 ft 469 kts 118°
2026-04-23 11:00 54.34573 39.19662 29634 ft 473 kts 116°
2026-04-23 11:00 54.33335 39.24929 30003 ft 479 kts 116°
2026-04-23 11:00 54.32101 39.30255 30370 ft 483 kts 116°
2026-04-23 11:00 54.30844 39.35615 30738 ft 487 kts 116°
2026-04-23 11:01 54.29560 39.41003 31101 ft 490 kts 116°
2026-04-23 11:01 54.28254 39.46416 31442 ft 494 kts 116°
2026-04-23 11:01 54.26925 39.51867 31744 ft 498 kts 116°
2026-04-23 11:01 54.25581 39.57350 32044 ft 502 kts 115°
2026-04-23 11:02 54.24223 39.62874 32344 ft 505 kts 115°
2026-04-23 11:02 54.22859 39.68409 32736 ft 506 kts 115°
2026-04-23 11:02 54.21492 39.73948 33159 ft 506 kts 115°
2026-04-23 11:02 54.20119 39.79497 33514 ft 507 kts 115°
2026-04-23 11:03 54.18744 39.85044 33823 ft 508 kts 115°
2026-04-23 11:03 54.17364 39.90595 34140 ft 508 kts 115°
2026-04-23 11:03 54.15979 39.96152 34487 ft 508 kts 115°
2026-04-23 11:03 54.14593 40.01701 34792 ft 509 kts 115°
2026-04-23 11:04 54.13204 40.07254 35125 ft 510 kts 115°
2026-04-23 11:04 54.11892 40.12853 35502 ft 509 kts 110°
2026-04-23 11:04 54.11162 40.16657 35685 ft 510 kts 109°
2026-04-23 11:04 54.10111 40.22429 35943 ft 511 kts 108°
2026-04-23 11:05 54.09091 40.28230 36229 ft 511 kts 108°
2026-04-23 11:05 54.08085 40.34049 36476 ft 513 kts 108°
2026-04-23 11:05 54.07080 40.39880 36802 ft 512 kts 108°
2026-04-23 11:05 54.06075 40.45694 37093 ft 512 kts 108°
2026-04-23 11:06 54.04040 40.57333 37632 ft 513 kts 108°
2026-04-23 11:06 54.03014 40.63156 37822 ft 515 kts 108°
2026-04-23 11:06 54.01982 40.68989 38039 ft 515 kts 108°
2026-04-23 11:07 54.00946 40.74819 38237 ft 515 kts 108°
2026-04-23 11:07 53.98855 40.86518 38566 ft 516 kts 108°
2026-04-23 11:07 53.97808 40.92352 38780 ft 516 kts 108°
2026-04-23 11:08 53.96756 40.98194 38919 ft 517 kts 108°
2026-04-23 11:08 53.95706 41.04008 39177 ft 514 kts 108°
2026-04-23 11:08 53.94682 41.09838 39253 ft 517 kts 107°
2026-04-23 11:08 53.93714 41.15709 39440 ft 516 kts 106°
2026-04-23 11:09 53.92769 41.21582 39653 ft 516 kts 106°
2026-04-23 11:09 53.90874 41.33340 39948 ft 516 kts 106°
2026-04-23 11:09 53.89915 41.39206 40068 ft 517 kts 106°
2026-04-23 11:10 53.88945 41.45071 40263 ft 516 kts 107°
2026-04-23 11:10 53.87971 41.50918 40373 ft 515 kts 107°
2026-04-23 11:10 53.86992 41.56758 40397 ft 515 kts 107°
2026-04-23 11:11 53.85025 41.68412 40408 ft 515 kts 107°
2026-04-23 11:11 53.83048 41.80082 40405 ft 515 kts 107°
2026-04-23 11:12 53.81048 41.91746 40415 ft 515 kts 107°
2026-04-23 11:12 53.79038 42.03364 40423 ft 515 kts 107°
2026-04-23 11:13 53.77018 42.14986 40430 ft 515 kts 108°
2026-04-23 11:13 53.74989 42.26584 40428 ft 515 kts 108°
2026-04-23 11:14 53.72946 42.38193 40436 ft 514 kts 108°
2026-04-23 11:14 53.70897 42.49753 40444 ft 514 kts 108°
2026-04-23 11:15 53.68064 42.60746 40439 ft 510 kts 124°
2026-04-23 11:15 53.63399 42.69585 40446 ft 504 kts 144°
2026-04-23 11:15 53.60487 42.72811 40440 ft 500 kts 155°
2026-04-23 11:16 53.57367 42.75366 40448 ft 498 kts 158°
2026-04-23 11:16 53.51003 42.79963 40455 ft 498 kts 160°
2026-04-23 11:17 53.44601 42.84424 40463 ft 498 kts 159°
2026-04-23 11:17 53.38206 42.88936 40463 ft 498 kts 159°
2026-04-23 11:18 53.31823 42.93489 40467 ft 498 kts 160°
2026-04-23 11:18 53.25467 42.98024 40468 ft 496 kts 160°
2026-04-23 11:19 53.19115 43.02538 40478 ft 496 kts 160°
2026-04-23 11:19 53.12751 43.07045 40478 ft 497 kts 159°
2026-04-23 11:20 53.06419 43.11706 40479 ft 498 kts 158°
2026-04-23 11:20 53.00117 43.16433 40490 ft 497 kts 158°
2026-04-23 11:21 52.93820 43.21127 40488 ft 496 kts 159°
2026-04-23 11:21 52.87518 43.25788 40495 ft 496 kts 158°
2026-04-23 11:22 52.81216 43.30418 40498 ft 496 kts 159°
2026-04-23 11:22 52.74911 43.35033 40503 ft 495 kts 158°
2026-04-23 11:23 52.68604 43.39635 40508 ft 495 kts 159°
2026-04-23 11:23 52.62298 43.44230 40509 ft 495 kts 159°
2026-04-23 11:24 52.55998 43.48808 40517 ft 495 kts 159°
2026-04-23 11:24 52.49687 43.53375 40528 ft 495 kts 158°
2026-04-23 11:25 52.43374 43.57931 40530 ft 496 kts 159°
2026-04-23 11:25 52.37064 43.62467 40528 ft 495 kts 158°
2026-04-23 11:26 52.30749 43.66993 40523 ft 495 kts 159°
2026-04-23 11:26 52.24442 43.71502 40534 ft 494 kts 159°
2026-04-23 11:27 52.18140 43.75991 40544 ft 495 kts 159°
2026-04-23 11:27 52.11827 43.80475 40545 ft 495 kts 158°
2026-04-23 11:28 52.05511 43.84947 40539 ft 495 kts 159°
2026-04-23 11:28 51.99194 43.89408 40562 ft 495 kts 159°
2026-04-23 11:29 51.92889 43.93843 40563 ft 494 kts 159°
2026-04-23 11:29 51.86574 43.98272 40572 ft 494 kts 159°
2026-04-23 11:30 51.80258 44.02687 40574 ft 494 kts 159°
2026-04-23 11:30 51.73946 44.07091 40581 ft 494 kts 159°
2026-04-23 11:31 51.67630 44.11483 40587 ft 494 kts 159°
2026-04-23 11:31 51.61309 44.15862 40586 ft 494 kts 159°
2026-04-23 11:32 51.54984 44.20232 40586 ft 495 kts 159°
2026-04-23 11:32 51.48656 44.24591 40600 ft 495 kts 159°
2026-04-23 11:33 51.42322 44.28940 40604 ft 495 kts 159°
2026-04-23 11:33 51.35996 44.33272 40611 ft 495 kts 159°
2026-04-23 11:34 51.29664 44.37593 40603 ft 495 kts 159°
2026-04-23 11:34 51.23328 44.41905 40613 ft 494 kts 159°
2026-04-23 11:35 51.16876 44.45581 40623 ft 490 kts 170°
2026-04-23 11:35 51.10141 44.46426 40622 ft 485 kts 184°
2026-04-23 11:36 51.03396 44.45909 40626 ft 485 kts 186°
2026-04-23 11:36 50.96672 44.45184 40628 ft 485 kts 186°
2026-04-23 11:37 50.89950 44.44491 40630 ft 483 kts 186°
2026-04-23 11:37 50.83230 44.43849 40632 ft 483 kts 186°
2026-04-23 11:38 50.76509 44.43227 40645 ft 484 kts 186°
2026-04-23 11:38 50.69787 44.42610 40637 ft 484 kts 186°
2026-04-23 11:39 50.63068 44.41990 40651 ft 483 kts 186°
2026-04-23 11:39 50.56355 44.41372 40650 ft 483 kts 186°
2026-04-23 11:40 50.49688 44.40763 40648 ft 483 kts 186°
2026-04-23 11:40 50.42980 44.40147 40647 ft 483 kts 186°
2026-04-23 11:41 50.36265 44.39533 40659 ft 483 kts 186°
2026-04-23 11:41 50.29558 44.38924 40652 ft 482 kts 186°
2026-04-23 11:42 50.22858 44.38318 40665 ft 482 kts 186°
2026-04-23 11:42 50.16170 44.37715 40664 ft 481 kts 186°
2026-04-23 11:43 50.09477 44.37108 40672 ft 481 kts 186°
2026-04-23 11:43 50.03866 44.36603 40669 ft 481 kts 186°
2026-04-23 11:44 49.96099 44.35906 40669 ft 481 kts 186°
2026-04-23 11:44 49.90509 44.35409 40672 ft 480 kts 186°
2026-04-23 11:45 49.83881 44.34817 40681 ft 480 kts 186°
2026-04-23 11:45 49.77213 44.34221 40681 ft 480 kts 186°
2026-04-23 11:46 49.70538 44.33629 40680 ft 480 kts 186°
2026-04-23 11:46 49.63867 44.33039 40681 ft 480 kts 186°
2026-04-23 11:47 49.57172 44.33280 40687 ft 485 kts 174°
2026-04-23 11:47 49.50661 44.36234 40685 ft 491 kts 162°
2026-04-23 11:48 49.44320 44.40214 40691 ft 493 kts 160°
2026-04-23 11:48 49.38005 44.44334 40688 ft 492 kts 161°
2026-04-23 11:49 49.31685 44.48394 40696 ft 492 kts 161°
2026-04-23 11:49 49.25357 44.52402 40700 ft 492 kts 161°
2026-04-23 11:50 49.19021 44.56388 40709 ft 492 kts 161°
2026-04-23 11:50 49.12679 44.60363 40710 ft 493 kts 161°
2026-04-23 11:51 49.06337 44.64328 40715 ft 492 kts 161°
2026-04-23 11:51 49.00003 44.68280 40724 ft 492 kts 161°
2026-04-23 11:52 48.93669 44.72224 40722 ft 492 kts 161°
2026-04-23 11:52 48.87339 44.76157 40729 ft 491 kts 162°
2026-04-23 11:53 48.81351 44.81286 40740 ft 499 kts 148°
2026-04-23 11:53 48.75796 44.87636 40741 ft 501 kts 146°
2026-04-23 11:54 48.70361 44.94141 40738 ft 501 kts 146°
2026-04-23 11:54 48.64853 45.00711 40756 ft 501 kts 146°
2026-04-23 11:55 48.59365 45.07193 40759 ft 501 kts 146°
2026-04-23 11:55 48.53898 45.13611 40762 ft 501 kts 146°
2026-04-23 11:56 48.48394 45.20051 40768 ft 501 kts 146°
2026-04-23 11:56 48.42892 45.26472 40773 ft 500 kts 146°
2026-04-23 11:57 48.37027 45.31913 40774 ft 493 kts 156°
2026-04-23 11:57 48.30865 45.36562 40767 ft 492 kts 158°
2026-04-23 11:58 48.24735 45.41013 40785 ft 493 kts 159°
2026-04-23 11:58 48.18562 45.45492 40791 ft 493 kts 159°
2026-04-23 11:59 48.12389 45.49985 40790 ft 493 kts 158°
2026-04-23 11:59 48.06223 45.54472 40790 ft 493 kts 159°
2026-04-23 12:00 48.00055 45.58952 40802 ft 492 kts 159°
2026-04-23 12:00 47.93885 45.63419 40801 ft 493 kts 159°
2026-04-23 12:01 47.87716 45.67873 40785 ft 493 kts 159°
2026-04-23 12:01 47.81547 45.72315 40811 ft 492 kts 159°
2026-04-23 12:02 47.75380 45.76745 40808 ft 492 kts 159°
2026-04-23 12:02 47.69211 45.81165 40814 ft 493 kts 159°
2026-04-23 12:03 47.63037 45.85576 40814 ft 492 kts 159°
2026-04-23 12:03 47.56866 45.89971 40818 ft 492 kts 159°
2026-04-23 12:04 47.50703 45.94351 40815 ft 492 kts 159°
2026-04-23 12:04 47.44532 45.98728 40822 ft 492 kts 159°
2026-04-23 12:05 47.38357 46.03095 40822 ft 492 kts 159°
2026-04-23 12:05 47.32183 46.07465 40823 ft 492 kts 159°
2026-04-23 12:06 47.26057 46.11789 40826 ft 492 kts 159°
2026-04-23 12:06 47.16799 46.18303 40829 ft 492 kts 159°
2026-04-23 12:07 47.10627 46.22648 40830 ft 492 kts 159°
2026-04-23 12:07 47.04923 46.28351 40840 ft 504 kts 141°
2026-04-23 12:08 47.00499 46.36438 40841 ft 513 kts 128°
2026-04-23 12:08 46.96637 46.45263 40842 ft 515 kts 126°
2026-04-23 12:09 46.92843 46.54165 40850 ft 515 kts 126°
2026-04-23 12:09 46.89014 46.63022 40839 ft 515 kts 127°
2026-04-23 12:10 46.85148 46.71845 40848 ft 515 kts 127°
2026-04-23 12:10 46.81265 46.80650 40853 ft 516 kts 127°
2026-04-23 12:11 46.77376 46.89450 40859 ft 515 kts 127°
2026-04-23 12:11 46.73483 46.98234 40874 ft 516 kts 128°
2026-04-23 12:12 46.69581 47.07015 40871 ft 516 kts 128°
2026-04-23 12:12 46.65708 47.15836 40876 ft 517 kts 127°
2026-04-23 12:13 46.61888 47.24628 40867 ft 517 kts 127°
2026-04-23 12:13 46.58036 47.33467 40874 ft 517 kts 127°
2026-04-23 12:14 46.54175 47.42274 40879 ft 517 kts 127°
2026-04-23 12:14 46.50299 47.51074 40880 ft 517 kts 127°
2026-04-23 12:15 46.46419 47.59861 40886 ft 516 kts 128°
2026-04-23 12:15 46.42536 47.68623 40886 ft 516 kts 128°
2026-04-23 12:16 46.38650 47.77365 40889 ft 516 kts 128°
2026-04-23 12:16 46.34751 47.86098 40904 ft 516 kts 128°
2026-04-23 12:17 46.30857 47.94808 40911 ft 516 kts 128°
2026-04-23 12:17 46.27755 48.04234 40911 ft 527 kts 110°
2026-04-23 12:18 46.25950 48.14529 40910 ft 530 kts 106°
2026-04-23 12:18 46.24390 48.24945 40905 ft 531 kts 106°
2026-04-23 12:19 46.22836 48.35366 40908 ft 531 kts 106°
2026-04-23 12:19 46.21074 48.45683 40903 ft 526 kts 114°
2026-04-23 12:20 46.17672 48.54825 40900 ft 511 kts 134°
2026-04-23 12:20 46.12518 48.61547 40902 ft 493 kts 154°
2026-04-23 12:21 46.06325 48.65352 40908 ft 481 kts 169°
2026-04-23 12:21 45.99895 48.67966 40909 ft 480 kts 171°
2026-04-23 12:22 45.93444 48.70441 40904 ft 480 kts 171°
2026-04-23 12:22 45.87044 48.72944 40912 ft 480 kts 170°
2026-04-23 12:23 45.80605 48.75507 40911 ft 480 kts 170°
2026-04-23 12:23 45.74168 48.78079 40911 ft 480 kts 170°
2026-04-23 12:24 45.67733 48.80639 40912 ft 481 kts 170°
2026-04-23 12:24 45.61293 48.83192 40912 ft 481 kts 170°
2026-04-23 12:25 45.54827 48.85753 40917 ft 481 kts 170°
2026-04-23 12:25 45.48374 48.88296 40913 ft 482 kts 170°
2026-04-23 12:26 45.41905 48.90845 40912 ft 482 kts 170°
2026-04-23 12:26 45.35477 48.93374 40913 ft 482 kts 170°
2026-04-23 12:27 45.29010 48.95914 40914 ft 482 kts 171°
2026-04-23 12:27 45.22538 48.98443 40915 ft 482 kts 170°
2026-04-23 12:28 45.16064 49.00969 40908 ft 482 kts 170°
2026-04-23 12:28 45.09595 49.03487 40903 ft 482 kts 170°
2026-04-23 12:29 45.03119 49.06002 40900 ft 483 kts 170°
2026-04-23 12:29 44.96644 49.08511 40907 ft 482 kts 170°
2026-04-23 12:30 44.90169 49.11014 40910 ft 482 kts 170°
2026-04-23 12:30 44.83695 49.13511 40889 ft 482 kts 170°
2026-04-23 12:31 44.78312 49.15582 40894 ft 482 kts 170°
2026-04-23 12:31 44.70789 49.18471 40903 ft 482 kts 170°
2026-04-23 12:32 44.64315 49.20949 40899 ft 482 kts 170°
2026-04-23 12:32 44.58885 49.23024 40892 ft 482 kts 170°
2026-04-23 12:33 44.52406 49.25495 40895 ft 482 kts 170°
2026-04-23 12:33 44.45928 49.27959 40889 ft 482 kts 170°
2026-04-23 12:34 44.39492 49.30402 40916 ft 482 kts 170°
2026-04-23 12:34 44.36257 49.31628 41076 ft 482 kts 170°
2026-04-23 12:34 44.33019 49.32854 41269 ft 482 kts 170°
2026-04-23 12:35 44.29770 49.34082 41420 ft 483 kts 170°
2026-04-23 12:35 44.26528 49.35306 41589 ft 483 kts 170°
2026-04-23 12:35 44.23285 49.36530 41760 ft 482 kts 170°
2026-04-23 12:35 44.20043 49.37751 41857 ft 483 kts 170°
2026-04-23 12:36 44.13559 49.40190 41874 ft 482 kts 170°
2026-04-23 12:36 44.07085 49.42621 41868 ft 482 kts 170°
2026-04-23 12:37 44.00614 49.45043 41839 ft 482 kts 170°
2026-04-23 12:37 43.94078 49.46495 41864 ft 470 kts 184°
2026-04-23 12:38 43.87701 49.45319 41861 ft 458 kts 201°
2026-04-23 12:38 43.82068 49.41555 41866 ft 450 kts 218°
2026-04-23 12:39 43.77580 49.35624 41863 ft 446 kts 234°
2026-04-23 12:39 43.74607 49.28131 41870 ft 446 kts 250°
2026-04-23 12:40 43.73389 49.19725 41875 ft 450 kts 265°
2026-04-23 12:40 43.74067 49.11100 41871 ft 457 kts 282°
2026-04-23 12:41 43.76123 49.02751 41875 ft 460 kts 287°
2026-04-23 12:41 43.78313 48.94429 41880 ft 458 kts 282°
2026-04-23 12:42 43.79240 48.85814 41884 ft 451 kts 267°
2026-04-23 12:42 43.78578 48.77229 41883 ft 448 kts 259°
2026-04-23 12:43 43.77520 48.68778 41892 ft 449 kts 258°
2026-04-23 12:43 43.76401 48.60286 41892 ft 449 kts 258°
2026-04-23 12:44 43.75304 48.51789 41895 ft 449 kts 258°
2026-04-23 12:44 43.74212 48.43289 41894 ft 449 kts 258°
2026-04-23 12:45 43.73116 48.34790 41898 ft 449 kts 258°
2026-04-23 12:45 43.72016 48.26296 41900 ft 449 kts 258°
2026-04-23 12:46 43.70910 48.17802 41902 ft 448 kts 258°
2026-04-23 12:46 43.69800 48.09332 41900 ft 448 kts 258°
2026-04-23 12:47 43.68692 48.00929 41903 ft 447 kts 258°
2026-04-23 12:47 43.67575 47.92504 41904 ft 445 kts 258°
2026-04-23 12:48 43.66454 47.84107 41903 ft 445 kts 258°
2026-04-23 12:48 43.65327 47.75709 41903 ft 445 kts 258°
2026-04-23 12:49 43.64193 47.67315 41903 ft 445 kts 258°
2026-04-23 12:49 43.63055 47.58930 41906 ft 444 kts 258°
2026-04-23 12:50 43.61913 47.50562 41906 ft 443 kts 258°
2026-04-23 12:50 43.61002 47.42150 41906 ft 444 kts 262°
2026-04-23 12:51 43.60393 47.33664 41906 ft 444 kts 262°
2026-04-23 12:51 43.59767 47.25188 41907 ft 444 kts 262°
2026-04-23 12:52 43.59079 47.16718 41896 ft 445 kts 261°
2026-04-23 12:52 43.58358 47.08238 41893 ft 445 kts 261°
2026-04-23 12:53 43.57627 46.99762 41907 ft 445 kts 261°
2026-04-23 12:53 43.56892 46.91274 41908 ft 446 kts 261°
2026-04-23 12:54 43.56152 46.82792 41890 ft 445 kts 261°
2026-04-23 12:54 43.55407 46.74317 41894 ft 445 kts 261°
2026-04-23 12:55 43.54655 46.65850 41889 ft 445 kts 261°
2026-04-23 12:55 43.53898 46.57382 41892 ft 445 kts 261°
2026-04-23 12:56 43.53135 46.48927 41898 ft 445 kts 261°
2026-04-23 12:56 43.52365 46.40474 41887 ft 445 kts 261°
2026-04-23 12:57 43.51590 46.32024 41884 ft 445 kts 261°
2026-04-23 12:57 43.50812 46.23620 41881 ft 445 kts 261°
2026-04-23 12:58 43.50023 46.15155 41914 ft 445 kts 261°
2026-04-23 12:58 43.49242 46.06688 41877 ft 446 kts 263°
2026-04-23 12:59 43.49456 45.98113 41880 ft 450 kts 272°
2026-04-23 12:59 43.50128 45.89539 41907 ft 450 kts 274°
2026-04-23 13:00 43.50870 45.80971 41902 ft 451 kts 274°
2026-04-23 13:00 43.51595 45.72394 41907 ft 451 kts 274°
2026-04-23 13:01 43.52296 45.63814 41909 ft 451 kts 273°
2026-04-23 13:01 43.52985 45.55220 41896 ft 451 kts 273°
2026-04-23 13:02 43.53666 45.46629 41897 ft 451 kts 273°
2026-04-23 13:02 43.54342 45.38040 41882 ft 451 kts 273°
2026-04-23 13:03 43.55012 45.29442 41878 ft 451 kts 273°
2026-04-23 13:03 43.55652 45.21149 41882 ft 451 kts 273°
2026-04-23 13:04 43.56098 45.15330 41867 ft 452 kts 273°
2026-04-23 13:04 43.56752 45.06711 41867 ft 452 kts 273°
2026-04-23 13:05 43.57400 44.98095 41862 ft 452 kts 273°
2026-04-23 13:05 43.58042 44.89468 41859 ft 452 kts 273°
2026-04-23 13:06 43.58992 44.76539 41874 ft 452 kts 273°
2026-04-23 13:07 43.59617 44.67908 41847 ft 452 kts 273°
2026-04-23 13:07 43.60236 44.59275 41532 ft 451 kts 273°
2026-04-23 13:07 43.60543 44.54967 41286 ft 451 kts 272°
2026-04-23 13:08 43.60847 44.50668 40931 ft 449 kts 272°
2026-04-23 13:08 43.61145 44.46437 40261 ft 449 kts 272°
2026-04-23 13:08 43.61445 44.42147 39563 ft 449 kts 272°
2026-04-23 13:08 43.61744 44.37857 38911 ft 448 kts 272°
2026-04-23 13:09 43.62040 44.33582 38214 ft 447 kts 272°
2026-04-23 13:09 43.62334 44.29324 37422 ft 445 kts 272°
2026-04-23 13:09 43.62624 44.25089 36641 ft 442 kts 272°
2026-04-23 13:09 43.62912 44.20874 35893 ft 439 kts 272°
2026-04-23 13:10 43.63433 44.16730 35140 ft 440 kts 281°
2026-04-23 13:10 43.64520 44.12781 34385 ft 443 kts 292°
2026-04-23 13:10 43.66217 44.09212 33593 ft 448 kts 303°
2026-04-23 13:10 43.68269 44.05960 32646 ft 450 kts 306°
2026-04-23 13:11 43.70386 44.02766 31542 ft 453 kts 306°
2026-04-23 13:11 43.72530 43.99547 30394 ft 457 kts 306°
2026-04-23 13:11 43.74691 43.96295 29132 ft 461 kts 306°
2026-04-23 13:11 43.76861 43.93023 28101 ft 460 kts 306°
2026-04-23 13:12 43.79012 43.89777 27339 ft 455 kts 306°
2026-04-23 13:12 43.81134 43.86574 26599 ft 449 kts 306°
2026-04-23 13:12 43.83243 43.83418 25871 ft 445 kts 307°
2026-04-23 13:12 43.85624 43.80624 25194 ft 452 kts 319°
2026-04-23 13:13 43.88330 43.78383 24497 ft 453 kts 323°
2026-04-23 13:13 43.91091 43.76303 23765 ft 450 kts 323°
2026-04-23 13:13 43.93800 43.74279 23020 ft 446 kts 323°
2026-04-23 13:13 43.96511 43.72247 22289 ft 440 kts 323°
2026-04-23 13:14 43.99187 43.70230 21614 ft 434 kts 323°
2026-04-23 13:14 44.01821 43.68239 20930 ft 429 kts 323°
2026-04-23 13:14 44.04429 43.66262 20249 ft 425 kts 323°
2026-04-23 13:14 44.07016 43.64298 19573 ft 423 kts 322°
2026-04-23 13:15 44.09585 43.62345 18855 ft 419 kts 322°
2026-04-23 13:15 44.12137 43.60402 18150 ft 416 kts 322°
2026-04-23 13:15 44.14666 43.58473 17366 ft 412 kts 322°
2026-04-23 13:15 44.17168 43.56563 16674 ft 409 kts 322°
2026-04-23 13:16 44.19655 43.54663 15969 ft 407 kts 323°
2026-04-23 13:16 44.22128 43.52771 15260 ft 404 kts 323°
2026-04-23 13:16 44.24585 43.50882 14555 ft 402 kts 323°
2026-04-23 13:16 44.26840 43.48674 14086 ft 393 kts 311°
2026-04-23 13:17 44.28592 43.45832 13483 ft 377 kts 299°
2026-04-23 13:17 44.30055 43.42742 12942 ft 387 kts 297°
2026-04-23 13:17 44.31500 43.39574 12456 ft 385 kts 298°
2026-04-23 13:17 44.32940 43.36434 12009 ft 383 kts 298°
2026-04-23 13:18 44.34381 43.33307 11558 ft 381 kts 299°
2026-04-23 13:18 44.35813 43.30207 11120 ft 379 kts 300°
2026-04-23 13:18 44.37231 43.27139 10808 ft 370 kts 300°
2026-04-23 13:18 44.38600 43.24183 10623 ft 354 kts 300°
2026-04-23 13:19 44.39904 43.21363 10517 ft 336 kts 299°
2026-04-23 13:19 44.41147 43.18684 10409 ft 320 kts 299°
2026-04-23 13:19 44.41935 43.16972 10292 ft 311 kts 299°
2026-04-23 13:19 44.43078 43.14486 10104 ft 297 kts 299°
2026-04-23 13:20 44.44170 43.12110 9883 ft 285 kts 299°
2026-04-23 13:20 44.45230 43.09795 9483 ft 281 kts 299°
2026-04-23 13:20 44.46275 43.07506 9028 ft 278 kts 300°
2026-04-23 13:20 44.47647 43.04509 8405 ft 275 kts 300°
2026-04-23 13:21 44.48669 43.02263 7953 ft 272 kts 300°
2026-04-23 13:21 44.49424 42.99889 7378 ft 263 kts 283°
2026-04-23 13:21 44.49526 42.98182 6833 ft 262 kts 266°
2026-04-23 13:21 44.48946 42.95772 6129 ft 265 kts 239°
2026-04-23 13:22 44.47623 42.93941 5777 ft 273 kts 213°
2026-04-23 13:22 44.45838 42.93132 5466 ft 272 kts 186°
2026-04-23 13:22 44.43966 42.92883 5115 ft 268 kts 193°
2026-04-23 13:22 44.42228 42.92043 4879 ft 263 kts 208°
2026-04-23 13:23 44.40648 42.90776 4595 ft 260 kts 212°
2026-04-23 13:23 44.39128 42.89446 4385 ft 255 kts 213°
2026-04-23 13:23 44.37669 42.88166 4360 ft 239 kts 213°
2026-04-23 13:23 44.36307 42.86976 4365 ft 222 kts 213°
2026-04-23 13:24 44.34971 42.86058 4365 ft 208 kts 197°
2026-04-23 13:24 44.33623 42.86177 4369 ft 193 kts 158°
2026-04-23 13:24 44.32490 42.87133 4364 ft 191 kts 144°
2026-04-23 13:24 44.31580 42.88499 4166 ft 194 kts 122°
2026-04-23 13:25 44.30919 42.90157 3864 ft 196 kts 120°
2026-04-23 13:25 44.30203 42.91732 3587 ft 187 kts 126°
2026-04-23 13:25 44.29504 42.93233 3311 ft 182 kts 123°
2026-04-23 13:25 44.28856 42.94682 3070 ft 171 kts 123°
2026-04-23 13:26 44.28241 42.96040 2829 ft 160 kts 123°
2026-04-23 13:26 44.27667 42.97305 2601 ft 150 kts 124°
2026-04-23 13:26 44.27118 42.98517 2409 ft 147 kts 124°
2026-04-23 13:26 44.26572 42.99720 2188 ft 146 kts 123°
2026-04-23 13:27 44.26028 43.00919 1975 ft 146 kts 122°
2026-04-23 13:27 44.25487 43.02115 1782 ft 145 kts 123°
2026-04-23 13:27 44.24950 43.03296 1572 ft 143 kts 122°
2026-04-23 13:27 44.24426 43.04462 1369 ft 141 kts 122°
2026-04-23 13:28 44.23905 43.05611 1188 ft 139 kts 123°
2026-04-23 13:28 44.23392 43.06750 1059 ft 135 kts 127°
2026-04-23 13:28 44.22937 43.07735 1057 ft 104 kts 123°
2026-04-23 13:28 44.22624 43.08423 1060 ft 49 kts 122°
2026-04-23 13:29 44.22476 43.08721 1061 ft 34 kts 131°
2026-04-23 13:29 44.22417 43.08794 1059 ft 34 kts 145°